LHA2314 LFMN-EDDP

Flight info

Callsign LHA2314
Flight time N/A
Altitude 32000
Route BASIP Y15 ANAKI DCT ABESI DCT LOKTA DCT TEDGO DCT HAREM DCT LOHRE N746 TIKNI T279 TAMEB T955 GOXLI
Aircraft A319/M-SDE1E2FGIRWYZ/S

Departure

Time 2026-05-01 08:06
Airport Nice-Côte d'Azur Airport (LFMN)

Arrival

Time N/A
Airport Leipzig/Halle Airport (EDDP)
Time Latitude Longitude Altitude Speed Heading
2026-05-01 07:52 43.66447 7.21432 33 ft 0 kts 319°
2026-05-01 07:58 43.66442 7.21439 33 ft 3 kts 319°
2026-05-01 07:59 43.66402 7.21487 32 ft 3 kts 316°
2026-05-01 07:59 43.66403 7.21539 30 ft 0 kts 227°
2026-05-01 08:02 43.66402 7.21539 30 ft 0 kts 227°
2026-05-01 08:02 43.66402 7.21538 30 ft 0 kts 227°
2026-05-01 08:03 43.66313 7.21603 27 ft 15 kts 168°
2026-05-01 08:03 43.66225 7.21527 27 ft 16 kts 223°
2026-05-01 08:03 43.66051 7.21285 22 ft 19 kts 226°
2026-05-01 08:04 43.65845 7.21005 18 ft 21 kts 224°
2026-05-01 08:04 43.65628 7.20712 18 ft 17 kts 221°
2026-05-01 08:05 43.65505 7.20840 15 ft 14 kts 53°
2026-05-01 08:05 43.65642 7.21040 15 ft 63 kts 46°
2026-05-01 08:05 43.66138 7.21723 21 ft 135 kts 45°
2026-05-01 08:06 43.67495 7.23841 1280 ft 148 kts 76°
2026-05-01 08:06 43.66496 7.26315 2543 ft 174 kts 132°
2026-05-01 08:07 43.64600 7.28843 3621 ft 209 kts 132°
2026-05-01 08:07 43.63132 7.32340 4852 ft 218 kts 86°
2026-05-01 08:08 43.63447 7.34367 5567 ft 220 kts 68°
2026-05-01 08:08 43.64589 7.38244 7295 ft 225 kts 65°
2026-05-01 08:09 43.65728 7.42326 8883 ft 234 kts 66°
2026-05-01 08:09 43.66295 7.44451 9663 ft 239 kts 67°
2026-05-01 08:09 43.66861 7.46598 10422 ft 243 kts 67°
2026-05-01 08:10 43.68042 7.51070 11732 ft 261 kts 67°
2026-05-01 08:10 43.69385 7.56100 12562 ft 298 kts 67°
2026-05-01 08:11 43.70892 7.61782 13285 ft 335 kts 67°
2026-05-01 08:11 43.72596 7.68147 14023 ft 366 kts 65°
2026-05-01 08:12 43.75190 7.74175 15393 ft 370 kts 49°
2026-05-01 08:12 43.76856 7.76864 16060 ft 373 kts 46°
2026-05-01 08:12 43.80338 7.82237 17324 ft 380 kts 45°
2026-05-01 08:13 43.82105 7.84986 17937 ft 384 kts 45°
2026-05-01 08:13 43.83787 7.87619 18501 ft 388 kts 45°
2026-05-01 08:13 43.87346 7.93214 19627 ft 395 kts 45°
2026-05-01 08:14 43.89159 7.96070 20174 ft 398 kts 45°
2026-05-01 08:14 43.90984 7.98948 20708 ft 401 kts 45°
2026-05-01 08:14 43.92817 8.01839 21226 ft 405 kts 45°
2026-05-01 08:14 43.94675 8.04774 21733 ft 408 kts 45°
2026-05-01 08:15 43.96566 8.07764 22229 ft 411 kts 45°
2026-05-01 08:15 44.00333 8.13733 23172 ft 417 kts 44°
2026-05-01 08:15 44.02248 8.16771 23628 ft 420 kts 44°
2026-05-01 08:16 44.04107 8.19903 24065 ft 426 kts 49°
2026-05-01 08:16 44.05751 8.23384 24491 ft 432 kts 56°
2026-05-01 08:16 44.07101 8.27159 24909 ft 439 kts 62°
2026-05-01 08:16 44.08263 8.31064 25321 ft 442 kts 64°
2026-05-01 08:17 44.09401 8.35073 25720 ft 446 kts 64°
2026-05-01 08:17 44.10529 8.39064 26108 ft 449 kts 64°
2026-05-01 08:17 44.11679 8.43113 26497 ft 451 kts 64°
2026-05-01 08:17 44.12838 8.47165 26871 ft 454 kts 64°
2026-05-01 08:18 44.14005 8.51237 27243 ft 457 kts 64°
2026-05-01 08:18 44.16362 8.59458 27970 ft 462 kts 64°
2026-05-01 08:19 44.19107 8.67261 28889 ft 451 kts 47°
2026-05-01 08:19 44.21247 8.70292 29336 ft 440 kts 32°
2026-05-01 08:19 44.23807 8.72452 29766 ft 429 kts 18°
2026-05-01 08:19 44.26606 8.73662 30185 ft 419 kts
2026-05-01 08:20 44.29482 8.74193 30633 ft 415 kts
2026-05-01 08:20 44.32368 8.74615 30994 ft 416 kts
2026-05-01 08:20 44.35236 8.75024 31203 ft 421 kts
2026-05-01 08:20 44.38190 8.75456 31476 ft 424 kts
2026-05-01 08:21 44.41129 8.75899 31812 ft 425 kts
2026-05-01 08:21 44.44045 8.76347 32144 ft 425 kts
2026-05-01 08:21 44.47000 8.76805 32320 ft 427 kts
2026-05-01 08:22 44.52909 8.77731 32325 ft 428 kts
2026-05-01 08:22 44.58786 8.78660 32326 ft 428 kts
2026-05-01 08:23 44.64660 8.79591 32327 ft 428 kts
2026-05-01 08:23 44.70578 8.80531 32327 ft 428 kts
2026-05-01 08:24 44.76471 8.81470 32327 ft 428 kts
2026-05-01 08:24 44.82341 8.82406 32327 ft 428 kts
2026-05-01 08:25 44.88232 8.83349 32328 ft 428 kts
2026-05-01 08:25 44.94158 8.84299 32332 ft 428 kts
2026-05-01 08:26 45.00017 8.85240 32336 ft 428 kts
2026-05-01 08:26 45.05957 8.86197 32346 ft 430 kts
2026-05-01 08:27 45.11869 8.87150 32366 ft 430 kts
2026-05-01 08:27 45.17809 8.88110 32386 ft 431 kts
2026-05-01 08:28 45.23730 8.89070 32399 ft 430 kts
2026-05-01 08:28 45.29672 8.90035 32404 ft 430 kts
2026-05-01 08:29 45.35591 8.90998 32406 ft 430 kts
2026-05-01 08:29 45.41520 8.91964 32407 ft 429 kts
2026-05-01 08:30 45.47491 8.92935 32407 ft 439 kts
2026-05-01 08:30 45.53552 8.93926 32407 ft 440 kts
2026-05-01 08:31 45.59640 8.94928 32407 ft 441 kts
2026-05-01 08:31 45.65710 8.95927 32407 ft 440 kts
2026-05-01 08:32 45.71735 8.96920 32407 ft 439 kts
2026-05-01 08:32 45.77803 8.97923 32407 ft 439 kts
2026-05-01 08:33 45.83847 8.98924 32407 ft 438 kts
2026-05-01 08:33 45.89895 8.99926 32407 ft 438 kts
2026-05-01 08:34 45.95916 9.00928 32407 ft 437 kts
2026-05-01 08:34 46.01545 9.01865 32407 ft 437 kts
2026-05-01 08:35 46.07579 9.02872 32407 ft 436 kts
2026-05-01 08:35 46.13578 9.03876 32408 ft 436 kts
2026-05-01 08:36 46.19571 9.04537 32408 ft 432 kts 357°
2026-05-01 08:36 46.25565 9.04947 32407 ft 433 kts 357°
2026-05-01 08:37 46.31544 9.05344 32407 ft 432 kts 357°
2026-05-01 08:37 46.37532 9.05745 32407 ft 432 kts 357°
2026-05-01 08:38 46.43523 9.06151 32407 ft 432 kts 357°
2026-05-01 08:38 46.49523 9.06558 32407 ft 432 kts 357°
2026-05-01 08:39 46.55526 9.06967 32407 ft 431 kts 356°
2026-05-01 08:39 46.61495 9.07373 32407 ft 431 kts 357°
2026-05-01 08:40 46.70450 9.07987 32404 ft 431 kts 356°
2026-05-01 08:40 46.76411 9.08396 32402 ft 431 kts 357°
2026-05-01 08:41 46.82367 9.08806 32393 ft 430 kts 356°
2026-05-01 08:41 46.88341 9.09218 32365 ft 430 kts 356°
2026-05-01 08:42 46.94295 9.09638 32342 ft 428 kts 356°
2026-05-01 08:42 47.00210 9.10055 32338 ft 426 kts 355°
2026-05-01 08:43 47.06054 9.10463 32343 ft 423 kts 354°
2026-05-01 08:43 47.11664 9.10845 32350 ft 422 kts 354°
2026-05-01 08:44 47.17485 9.11244 32352 ft 421 kts 354°
2026-05-01 08:44 47.23340 9.11650 32353 ft 421 kts 354°
2026-05-01 08:45 47.29155 9.12056 32353 ft 421 kts 354°